TimeEST,TemperatureF,Dew PointF,Humidity,Sea Level PressureIn,VisibilityMPH,Wind Direction,Wind SpeedMPH,Gust SpeedMPH,PrecipitationIn,Events,Conditions,WindDirDegrees,DateUTC
12:54 AM,46.9,45.0,93,30.04,6.0,WSW,13.8,-,N/A,,Overcast,240,2012-12-03 05:54:00
1:54 AM,46.9,45.0,93,30.04,5.0,SW,13.8,-,N/A,,Overcast,230,2012-12-03 06:54:00
2:54 AM,46.9,45.0,93,30.05,5.0,WSW,12.7,-,N/A,,Overcast,240,2012-12-03 07:54:00
3:44 AM,46.4,44.6,93,30.03,5.0,WSW,9.2,-,N/A,,Overcast,250,2012-12-03 08:44:00
3:54 AM,46.9,44.1,90,30.04,5.0,WSW,9.2,-,N/A,,Overcast,240,2012-12-03 08:54:00
4:24 AM,46.4,44.6,93,30.04,5.0,WSW,10.4,-,N/A,,Mostly Cloudy,250,2012-12-03 09:24:00
4:46 AM,46.4,44.6,93,30.04,5.0,WSW,9.2,-,N/A,,Scattered Clouds,240,2012-12-03 09:46:00
4:54 AM,46.0,44.1,93,30.06,5.0,WSW,10.4,-,N/A,,Scattered Clouds,250,2012-12-03 09:54:00
5:29 AM,46.4,44.6,93,30.06,5.0,Variable,6.9,-,N/A,,Overcast,0,2012-12-03 10:29:00
5:54 AM,46.0,44.1,93,30.07,4.0,West,10.4,-,N/A,,Mostly Cloudy,260,2012-12-03 10:54:00
6:11 AM,44.6,42.8,93,30.05,5.0,West,11.5,-,N/A,,Scattered Clouds,260,2012-12-03 11:11:00
6:54 AM,46.0,44.1,93,30.08,6.0,West,10.4,-,N/A,,Clear,270,2012-12-03 11:54:00
7:04 AM,46.4,44.6,93,30.08,2.5,West,9.2,17.3,N/A,,Clear,270,2012-12-03 12:04:00
7:54 AM,46.9,43.0,86,30.12,7.0,West,6.9,-,N/A,,Clear,280,2012-12-03 12:54:00
8:54 AM,48.9,43.0,80,30.14,10.0,NW,11.5,-,N/A,,Clear,310,2012-12-03 13:54:00
9:54 AM,50.0,42.1,74,30.16,10.0,WNW,15.0,20.7,N/A,,Partly Cloudy,300,2012-12-03 14:54:00
10:54 AM,52.0,41.0,66,30.15,10.0,WNW,15.0,20.7,N/A,,Partly Cloudy,300,2012-12-03 15:54:00
11:54 AM,52.0,39.0,61,30.16,10.0,WNW,11.5,-,N/A,,Scattered Clouds,300,2012-12-03 16:54:00
12:54 PM,53.1,39.9,61,30.15,10.0,WNW,10.4,-,N/A,,Partly Cloudy,300,2012-12-03 17:54:00
1:54 PM,53.1,39.0,59,30.17,10.0,NW,10.4,-,N/A,,Clear,310,2012-12-03 18:54:00
2:54 PM,53.1,39.0,59,30.17,10.0,NW,8.1,-,N/A,,Clear,320,2012-12-03 19:54:00
3:54 PM,50.0,39.0,66,30.19,10.0,WNW,3.5,-,N/A,,Clear,290,2012-12-03 20:54:00
4:54 PM,46.9,37.9,71,30.21,10.0,Variable,3.5,-,N/A,,Clear,0,2012-12-03 21:54:00
5:54 PM,45.0,37.9,76,30.24,10.0,West,6.9,-,N/A,,Clear,280,2012-12-03 22:54:00
6:54 PM,44.1,37.9,79,30.25,10.0,West,4.6,-,N/A,,Clear,270,2012-12-03 23:54:00
7:54 PM,42.1,37.0,82,30.27,10.0,West,6.9,-,N/A,,Clear,270,2012-12-04 00:54:00
8:54 PM,43.0,37.9,82,30.27,10.0,NW,4.6,-,N/A,,Clear,310,2012-12-04 01:54:00
9:54 PM,43.0,37.9,82,30.28,10.0,Calm,Calm,-,N/A,,Clear,0,2012-12-04 02:54:00
10:54 PM,43.0,37.0,80,30.29,10.0,NE,3.5,-,N/A,,Clear,50,2012-12-04 03:54:00
11:54 PM,43.0,37.9,82,30.29,10.0,ENE,3.5,-,N/A,,Clear,60,2012-12-04 04:54:00